2194 visiteurs
Prévisions de votre ville :
Vigilance : 38 départements 42 départements Mise à jour le 14/10/2019 à 10:12 - Voir la carte

Paris Roissy CDG (95380) le 14/10/2019 à 12:00 Choisir station

20.9°C 59 % SSE Rafales 43 km/h
Vit. moyenne 24 kmh/h

Relevés météo quotidiens pour la station de :

UTC
S: Synop
M: Metar
Loc T°C
(°C)
Td
(°C)
HR
(%)
Vis
(km)
Néb
(octa)
Vent
(km/h)
Pression
(mb)
Précipitations
(mm)
Temps
              MOY
10 min
DIR RAF 1h MESURE VAR SUR 3h    
S 00 h 02h 19.0 15.1 78 40 - 2 4 1018.2 -0.6/3h 0.0/6h - 0.0/3h -
S 01 h 03h 18.7 15.4 81 40 - 4 6 1017.6 -0.9/3h 0.0/1h -
S 02 h 04h 18.7 15.6 82 35 - 4 7 1017.6 -0.9/3h 0.0/1h -
S 03 h 05h 18.4 15.5 83 40 - 4 9 1017.0 -1.2/3h 0.0/3h -
S 04 h 06h 20.6 15.6 73 45 - 4 7 1016.1 -1.4/3h 0.0/1h -
S 05 h 07h 22.2 14.3 61 50 - 6 11 1015.3 -2.2/3h 0.0/1h -
S 06 h 08h 23.2 13.4 54 55 - 7 24 1015.2 -1.7/3h 0.0/12h - 0.0/3h - 0.0/24h -
S 07 h 09h 25.6 14.1 49 40 - 11 26 1015.0 -1.1/3h 0.0/1h -
S 08 h 10h 29.1 13.7 39 35 - 15 22 1014.6 -0.7/3h 0.0/1h -
S 09 h 11h 33.3 13.9 31 45 - 4 15 1014.4 -0.7/3h 0.0/3h -
S 10 h 12h 36.4 13.8 26 50 - 11 19 1013.9 -1.0/3h 0.0/1h -
S 11 h 13h 37.2 14.5 26 19 - 24 37 1013.6 -0.9/3h 0.0/1h -
S 12 h 14h 38.1 15.8 27 19 - 26 44 1013.0 -1.4/3h 0.0/6h - 0.0/3h -
S 13 h 15h 35.9 17.6 34 26 - 28 52 1013.1 -0.8/3h 0.0/1h -
S 14 h 16h 37.1 14.4 26 19 - 26 57 1012.4 -1.2/3h 0.0/1h -
S 15 h 17h 37.5 14.1 25 29 - 19 43 1011.8 -1.2/3h 0.0/3h -
S 16 h 18h 37.3 14.0 25 29 - 22 35 1011.2 -1.9/3h 0.0/1h -
S 17 h 19h 36.7 12.2 23 21 - 24 39 1011.4 -1.0/3h 0.0/1h -
S 18 h 20h 31.1 15.5 39 23 - 20 44 1011.9 +0.1/3h 0.0/12h - 0.0/3h -
S 19 h 21h 28.4 17.3 51 35 - 7 33 1012.0 +0.7/3h 0.0/1h -
S 20 h 22h 24.1 19.6 76 30 - 6 15 1013.0 +1.5/3h 0.0/1h -
S 21 h 23h 22.7 19.9 84 19 - 7 22 1013.6 +1.6/3h 0.0/3h -
S 22 h 00h 21.7 19.8 89 17 - 6 15 1013.5 +1.5/3h 0.0/1h -
S 23 h 01h 21.7 20.3 92 11 - 11 13 1013.7 +0.7/3h 0.0/1h -
evolution des temperatures
cumul des precipitations
vent moyen et rafales
pression atmospherique

Un tiret (-) signifie que les données ne sont pas disponibles.

Passez la souris sur les pictos temps pour avoir plus de précisions. Passez les flèches sur l'icône de la direction du vent pour voir la direction précise en degrés.

Les données de l'heure en cours sont disponibles à partir de H+15 minutes.


S signifie station Synop, plus complète qu'une station Metar (M). Il y a +1h de différence entre l'heure UTC et l'heure légale en hiver et +2h en été.

Td est la mesure du point de rosée.

HR est l'humidité relative/p>

Vis est la visibilité

Néb est la nébulosité du ciel (couverture nuageuse) exprimée en octas (de 0/8 à 8/8).

Vent moy 10 min donne le vent moyen sur les 10 minutes qui précèdent le relevé.

Vent raf 1h donne la rafale maximale mesurée dans l'heure qui précède le relevé.


Les données les plus anciennes remontent à avril 2014.

Les données présentées sur cette page proviennent des stations météo officielles. Les relevés sont effectués aux normes en vigueur (anémomètre à 10m de haut, thermomètre sous abri normalisé à 2m du sol...)

Météo 60 décline toute responsabilité en cas d'absence de données, d'erreurs, de mauvaise utilisation ou interprétation et n'est pas habilité à fournir des certificats intempéries.